Hastings, NE

1:59 PM CDT on June 22, 2017 (GMT -0500)
Hastings Municipal

Weather History for KHSI - November, 2012

Change the Weather History Date:

Tuesday, November 13, 2012

  Actual Average Record
Temperature  
Mean Temperature 40 °F 40 °F  
Max Temperature 56 °F 51 °F 81 °F (1999)
Min Temperature 23 °F 29 °F -3 °F (1940)
Degree Days  
Heating Degree Days 25 25  
Month to date heating degree days 284 289  
Since 1 July heating degree days 845 782  
Cooling Degree Days 0 0  
Month to date cooling degree days 0 0  
Year to date cooling degree days 1339 1077  
Moisture  
Dew Point 18 °F    
Average Humidity 41    
Maximum Humidity 60    
Minimum Humidity 22    
Precipitation  
Precipitation 0.00 in 0.05 in 1.23 in (1972)
Month to date precipitation 0.65 0.69  
Year to date precipitation 18.77 25.90  
Snow  
Snow 0.00 in 0.00 in 5.00 in (1909)
Month to date snowfall 0.0 0.7  
Since 1 July snowfall T 1.9  
Since 1 September snowfall T 1.9  
Snow Depth 0.00 in    
Sea Level Pressure  
Sea Level Pressure 30.31 in    
Wind  
Wind Speed 6 mph (South)    
Max Wind Speed 12 mph    
Max Gust Speed 16 mph    
Visibility 10 miles    
Events      
T = Trace of Precipitation, MM = Missing Value Source: NWS Daily Summary

Daily Weather History Graph

Daily Weather History Graph

Search for Another Location

Airport or City:

Trip Planner

Search our weather history database for the weather conditions in past years. The results will help you decide how hot, cold, wet, or windy it might be!

Date:

Astronomy

Nov. 13, 2012 Rise Set
Actual Time 7:18 AM CST 5:17 PM CST
Civil Twilight 6:49 AM CST 5:46 PM CST
Nautical Twilight 6:16 AM CST 6:19 PM CST
Astronomical Twilight 5:44 AM CST 6:51 PM CST
Moon 6:58 AM CST (11/13) 5:11 PM CST (11/13)
Length of Visible Light 10h 57m
Length of Day
9h 58m
Waning Crescent, 0% of the Moon is Illuminated
Nov 13
Waning Crescent
Nov 13
New
Nov 20
First Quarter
Nov 28
Full
Dec 6
Last Quarter

Hourly Weather History & Observations

Time (CST) Temp. Windchill Dew Point Humidity Pressure Visibility Wind Dir Wind Speed Gust Speed Precip Events Conditions
12:53 AM 25.0 °F 20.7 °F 12.9 °F 60% 30.38 in 10.0 mi SSW 3.5 mph - N/A   Clear
1:53 AM 25.0 °F 19.3 °F 12.0 °F 58% 30.38 in 10.0 mi SSW 4.6 mph - N/A   Clear
2:53 AM 24.1 °F 19.7 °F 12.9 °F 62% 30.38 in 10.0 mi SSW 3.5 mph - N/A   Clear
3:53 AM 26.1 °F 21.9 °F 12.0 °F 55% 30.35 in 10.0 mi SW 3.5 mph - N/A   Clear
4:53 AM 25.0 °F 20.7 °F 12.0 °F 58% 30.35 in 10.0 mi SSW 3.5 mph - N/A   Clear
5:53 AM 27.0 °F 21.6 °F 10.9 °F 51% 30.35 in 10.0 mi South 4.6 mph - N/A   Clear
6:53 AM 28.0 °F 22.8 °F 12.0 °F 51% 30.35 in 10.0 mi South 4.6 mph - N/A   Clear
7:53 AM 28.9 °F 21.1 °F 12.9 °F 51% 30.34 in 10.0 mi South 8.1 mph - N/A   Clear
8:53 AM 32.0 °F 28.7 °F 17.1 °F 54% 30.35 in 10.0 mi South 3.5 mph - N/A   Clear
9:53 AM 35.1 °F 30.1 °F 19.9 °F 54% 30.35 in 10.0 mi SSW 5.8 mph - N/A   Clear
10:53 AM 39.9 °F 35.8 °F 23.0 °F 51% 30.34 in 10.0 mi South 5.8 mph - N/A   Clear
11:53 AM 48.0 °F - 16.0 °F 28% 30.30 in 10.0 mi SSW 8.1 mph - N/A   Clear
12:53 PM 51.1 °F - 19.0 °F 28% 30.27 in 10.0 mi South 8.1 mph - N/A   Clear
1:53 PM 54.0 °F - 18.0 °F 24% 30.24 in 10.0 mi South 5.8 mph - N/A   Clear
2:53 PM 54.0 °F - 16.0 °F 22% 30.23 in 10.0 mi South 8.1 mph - N/A   Clear
3:53 PM 53.1 °F - 17.1 °F 24% 30.23 in 10.0 mi South 5.8 mph - N/A   Clear
4:53 PM 50.0 °F - 19.9 °F 31% 30.25 in 10.0 mi South 5.8 mph - N/A   Clear
5:53 PM 48.0 °F - 21.9 °F 36% 30.25 in 10.0 mi South 5.8 mph - N/A   Clear
6:53 PM 46.0 °F 41.9 °F 21.0 °F 37% 30.27 in 10.0 mi South 8.1 mph - N/A   Clear
7:53 PM 44.1 °F 39.5 °F 21.9 °F 42% 30.28 in 10.0 mi South 8.1 mph - N/A   Clear
8:53 PM 43.0 °F 37.7 °F 23.0 °F 45% 30.29 in 10.0 mi SSW 9.2 mph - N/A   Clear
9:53 PM 41.0 °F 36.4 °F 25.0 °F 53% 30.30 in 10.0 mi South 6.9 mph - N/A   Clear
10:53 PM 39.0 °F 34.0 °F 25.0 °F 57% 30.30 in 10.0 mi South 6.9 mph - N/A   Clear
11:53 PM 37.0 °F 31.6 °F 25.0 °F 62% 30.30 in 10.0 mi South 6.9 mph - N/A   Clear